DW8427 Weather Reports


Display with metric or nautical units.
time (UTC)temp
F
wind
direction
speed
MPH
gust
MPH
rain 1hr
in
rain 24hr
in
rain mn
in
humidity
%
barometer
mb
20260509143043 59 133 0.0 3.0 0.00 0.00 0.00 78 1014.2
20260509141631 58 134 1.0 3.0 0.00 0.00 0.00 79 1014.1
20260509140030 57 136 0.0 2.0 0.00 0.00 0.00 81 1014.0
20260509134531 56 129 0.0 0.0 0.00 0.00 0.00 83 1014.1
20260509133033 56 98 0.0 0.0 0.00 0.00 0.00 83 1014.1
20260509131537 56 98 0.0 0.0 0.00 0.00 0.00 83 1014.0
20260509130027 56 98 0.0 0.0 0.00 0.00 0.00 83 1014.0
20260509124529 56 97 0.0 0.0 0.00 0.00 0.00 83 1013.8
20260509123025 56 99 0.0 0.0 0.00 0.00 0.00 83 1013.8
20260509121527 57 113 0.0 0.0 0.00 0.00 0.00 82 1013.7
20260509120120 57 118 0.0 0.0 0.00 0.00 0.00 83 1013.7
20260509114519 57 98 0.0 0.0 0.00 0.00 0.00 82 1013.7
20260509113018 58 111 0.0 0.0 0.00 0.00 0.00 82 1013.4
20260509111516 58 113 0.0 1.0 0.00 0.00 0.00 81 1013.5
20260509110014 58 108 0.0 1.0 0.00 0.00 0.00 81 1013.4
20260509104528 58 86 0.0 1.0 0.00 0.00 0.00 81 1013.4
20260509103010 59 107 0.0 1.0 0.00 0.00 0.00 81 1013.5
20260509101509 59 146 0.0 2.0 0.00 0.00 0.00 80 1013.7
20260509100010 59 113 0.0 0.0 0.00 0.00 0.00 82 1013.6
20260509094516 59 124 0.0 0.0 0.00 0.00 0.00 82 1013.6
20260509093003 59 115 0.0 0.0 0.00 0.00 0.00 81 1013.7
20260509091501 60 122 0.0 0.0 0.00 0.00 0.00 80 1013.8
20260509090108 60 120 0.0 2.0 0.00 0.00 0.00 80 1013.9
20260509084602 60 105 0.0 0.0 0.00 0.00 0.00 81 1013.9
20260509083056 61 110 0.0 1.0 0.00 0.00 0.00 80 1013.9
20260509081554 61 124 0.0 3.0 0.00 0.00 0.00 80 1014.0
20260509080057 62 106 0.0 2.0 0.00 0.00 0.00 80 1014.1
20260509074551 62 112 0.0 2.0 0.00 0.00 0.00 80 1014.2
20260509073052 62 151 0.0 3.0 0.00 0.00 0.00 80 1014.1
20260509071555 63 113 0.0 4.0 0.00 0.00 0.00 79 1013.9
20260509070043 64 118 1.0 3.0 0.00 0.00 0.00 79 1013.9
20260509064541 64 115 0.0 3.0 0.00 0.00 0.00 79 1013.9
20260509063041 64 122 0.0 0.0 0.00 0.00 0.00 77 1013.9
20260509061547 65 128 0.0 0.0 0.00 0.00 0.00 76 1014.0
20260509060043 65 139 0.0 0.0 0.00 0.00 0.00 75 1013.9
20260509054548 66 93 0.0 0.0 0.00 0.00 0.00 74 1013.9
20260509053039 67 125 0.0 0.0 0.00 0.00 0.00 73 1013.9
20260509051539 68 90 0.0 3.0 0.00 0.00 0.00 73 1013.9
20260509050049 68 130 0.0 1.0 0.00 0.00 0.00 72 1013.9
20260509044545 69 119 0.0 1.0 0.00 0.00 0.00 71 1013.7
20260509043036 70 134 0.0 0.0 0.00 0.00 0.00 70 1013.6
20260509041536 71 151 0.0 2.0 0.00 0.00 0.00 69 1013.5
20260509040038 72 156 0.0 1.0 0.00 0.00 0.00 68 1013.4
20260509034540 73 135 0.0 0.0 0.00 0.00 0.00 66 1013.2
20260509033034 74 136 0.0 1.0 0.00 0.00 0.00 65 1013.2
20260509031535 76 106 0.0 0.0 0.00 0.00 0.00 64 1013.1
20260509030034 78 117 0.0 1.0 0.00 0.00 0.00 61 1012.9
20260509024533 80 120 0.0 1.0 0.00 0.00 0.00 57 1012.8
20260509023038 84 103 0.0 0.0 0.00 0.00 0.00 50 1012.6
20260509021531 84 326 0.0 2.0 0.00 0.00 0.00 46 1012.6
20260509020030 85 264 0.0 2.0 0.00 0.00 0.00 45 1012.6
20260509014534 84 300 1.0 6.0 0.00 0.00 0.00 46 1012.8
20260509013038 85 253 2.0 7.0 0.00 0.00 0.00 46 1012.8
20260509011526 86 275 0.0 1.0 0.00 0.00 0.00 45 1012.9
20260509010024 85 283 1.0 5.0 0.00 0.00 0.00 43 1012.9
20260509004525 85 259 0.0 6.0 0.00 0.00 0.00 43 1013.0
20260509003022 85 243 0.0 4.0 0.00 0.00 0.00 44 1013.2
20260509001520 85 217 0.0 5.0 0.00 0.00 0.00 44 1013.3
20260509000017 86 293 0.0 1.0 0.00 0.00 0.00 45 1013.4
20260508234516 85 11 0.0 0.0 0.00 0.00 0.00 47 1013.5
20260508233010 84 251 1.0 6.0 0.00 0.00 0.00 47 1013.7
20260508231509 84 318 0.0 6.0 0.00 0.00 0.00 47 1013.8
20260508230017 84 319 1.0 5.0 0.00 0.00 0.00 47 1014.1
20260508224510 83 266 1.0 5.0 0.00 0.00 0.00 47 1014.3
20260508223003 82 138 1.0 5.0 0.00 0.00 0.00 49 1014.5
20260508221606 82 271 3.0 7.0 0.00 0.00 0.00 49 1014.8
20260508220059 83 114 0.0 3.0 0.00 0.00 0.00 49 1015.0
20260508214554 81 232 0.0 3.0 0.00 0.00 0.00 51 1015.3
20260508213112 80 214 1.0 5.0 0.00 0.00 0.00 51 1015.4
20260508211551 81 250 0.0 2.0 0.00 0.00 0.00 53 1015.6
20260508210049 79 329 0.0 6.0 0.00 0.00 0.00 54 1015.8
20260508204550 79 4 0.0 5.0 0.00 0.00 0.00 54 1016.0
20260508203052 78 295 0.0 1.0 0.00 0.00 0.00 55 1016.2
20260508201543 77 100 0.0 1.0 0.00 0.00 0.00 56 1016.3
20260508200049 76 287 0.0 4.0 0.00 0.00 0.00 57 1016.4
20260508194538 75 292 0.0 4.0 0.00 0.00 0.00 59 1016.7
20260508193106 73 8 0.0 1.0 0.00 0.00 0.00 59 1016.8
20260508191534 72 293 0.0 3.0 0.00 0.00 0.00 63 1016.9
20260508190037 72 96 0.0 4.0 0.00 0.00 0.00 64 1017.0
20260508184531 71 284 0.0 4.0 0.00 0.00 0.00 63 1017.1
20260508183028 70 290 0.0 4.0 0.00 0.00 0.00 65 1017.1
20260508181528 70 219 0.0 1.0 0.00 0.00 0.00 65 1017.3
20260508180028 67 135 0.0 5.0 0.00 0.00 0.00 69 1017.2
20260508174541 66 93 0.0 4.0 0.00 0.00 0.00 70 1017.5
20260508173020 66 256 0.0 1.0 0.00 0.00 0.00 72 1017.6
20260508171519 64 136 0.0 4.0 0.00 0.00 0.00 74 1017.7
20260508170016 61 104 1.0 5.0 0.00 0.00 0.00 77 1017.6
20260508164514 61 259 0.0 5.0 0.00 0.00 0.00 79 1017.5
20260508163011 59 152 0.0 3.0 0.00 0.00 0.00 81 1017.5
20260508161534 58 191 1.0 5.0 0.00 0.00 0.00 81 1017.5
20260508160010 58 122 0.0 6.0 0.00 0.00 0.00 82 1017.6
20260508154510 56 110 0.0 6.0 0.00 0.00 0.00 84 1017.6
20260508153011 55 115 0.0 5.0 0.00 0.00 0.00 87 1017.6
20260508151528 54 106 1.0 5.0 0.00 0.00 0.00 86 1017.6
20260508150010 54 108 3.0 6.0 0.00 0.00 0.00 87 1017.4
20260508144504 53 110 2.0 8.0 0.00 0.00 0.00 88 1017.3